TimeCDT,TemperatureF,Dew PointF,Humidity,Sea Level PressureIn,VisibilityMPH,Wind Direction,Wind SpeedMPH,Gust SpeedMPH,PrecipitationIn,Events,Conditions,WindDirDegrees,DateUTC
12:56 AM,59.0,46.9,64,29.75,-9999.0,South,5.8,-,N/A,,Unknown,170,2013-10-09 05:56:00
1:56 AM,57.9,46.9,67,29.77,-9999.0,SSE,5.8,-,N/A,,Unknown,160,2013-10-09 06:56:00
2:56 AM,60.1,46.9,62,29.78,-9999.0,SSW,6.9,-,N/A,,Unknown,210,2013-10-09 07:56:00
3:56 AM,59.0,46.9,64,29.79,-9999.0,WSW,8.1,-,N/A,,Unknown,250,2013-10-09 08:56:00
4:56 AM,52.0,46.0,80,29.83,-9999.0,SE,6.9,-,N/A,,Unknown,130,2013-10-09 09:56:00
5:56 AM,52.0,46.0,80,29.85,-9999.0,Calm,Calm,-,N/A,,Unknown,0,2013-10-09 10:56:00
6:56 AM,48.9,46.0,90,29.88,-9999.0,NNW,8.1,-,N/A,,Unknown,340,2013-10-09 11:56:00
7:56 AM,46.9,44.1,90,29.91,-9999.0,NNW,8.1,-,N/A,,Unknown,340,2013-10-09 12:56:00
8:56 AM,53.1,44.1,71,29.92,-9999.0,NW,3.5,-,N/A,,Unknown,310,2013-10-09 13:56:00
9:56 AM,57.9,45.0,62,29.94,-9999.0,NNW,4.6,-,N/A,,Unknown,330,2013-10-09 14:56:00
10:56 AM,62.1,46.9,58,29.95,-9999.0,Calm,Calm,-,N/A,,Unknown,0,2013-10-09 15:56:00
11:56 AM,64.9,48.0,54,29.94,-9999.0,Calm,Calm,-,N/A,,Unknown,0,2013-10-09 16:56:00
12:56 PM,69.1,48.9,49,29.92,-9999.0,Variable,5.8,-,N/A,,Unknown,0,2013-10-09 17:56:00
1:56 PM,72.0,50.0,46,29.91,-9999.0,NE,8.1,-,N/A,,Unknown,50,2013-10-09 18:56:00
2:56 PM,73.0,50.0,44,29.91,-9999.0,NE,5.8,-,N/A,,Unknown,50,2013-10-09 19:56:00
3:56 PM,73.0,48.9,42,29.90,-9999.0,ENE,4.6,-,N/A,,Unknown,60,2013-10-09 20:56:00
4:56 PM,71.1,50.0,47,29.91,-9999.0,ENE,6.9,-,N/A,,Unknown,70,2013-10-09 21:56:00
5:56 PM,69.1,51.1,53,29.91,-9999.0,ENE,3.5,-,N/A,,Unknown,60,2013-10-09 22:56:00
6:56 PM,63.0,52.0,67,29.92,-9999.0,NE,3.5,-,N/A,,Unknown,50,2013-10-09 23:56:00
7:56 PM,57.9,52.0,81,29.93,-9999.0,North,4.6,-,N/A,,Unknown,350,2013-10-10 00:56:00
8:56 PM,55.9,51.1,84,29.94,-9999.0,NNW,5.8,-,N/A,,Unknown,340,2013-10-10 01:56:00
9:56 PM,53.1,48.9,86,29.93,-9999.0,NW,3.5,-,N/A,,Unknown,310,2013-10-10 02:56:00
10:56 PM,54.0,46.9,77,29.91,-9999.0,NW,6.9,-,N/A,,Unknown,310,2013-10-10 03:56:00
11:56 PM,51.1,46.9,86,29.91,-9999.0,NNW,3.5,-,N/A,,Unknown,330,2013-10-10 04:56:00